Flag for Portugal Weather past 2 weeks in Ponta Delgada, Azores, Portugal

Now
57 °F

Passing clouds.


Feels Like: 55 °F
Forecast: 57 / 61 °F
Wind: 8 mph from Northwest

Location: Ponta Delgada / Nordela Acores

Current Time: Jan 31, 2015 at 5:00:45 AM

Latest Report: Jan 31, 2015 at 4:00 AM


Visibility: N/A

Pressure: 30.39 "Hg

Humidity: 67%

Dew point: 46 °F

Location of Ponta DelgadaLocation

Historic Weather in Ponta Delgada — Graph

°F

Ponta Delgada temperature yesterday

Maximum temperature yesterday: 59 °F (at 9:30 AM)
Minimum temperature yesterday: 54 °F (at 3:00 AM)
Average temperature yesterday: 57 °F

Past Weeks' High & Low Weather Summary

 TemperatureHumidityPressure
High63 °F (Jan 17, 12:00 PM)94% (Jan 17, 8:00 AM)30.74 "Hg (Jan 17, 8:00 AM)
Low50 °F (Jan 16, 6:00 AM)51% (Jan 16, 11:00 AM)30.39 "Hg (Jan 31, 1:30 AM)
Average56 °F76%30.54 "Hg
* Reported Jan 16 4:00 AM — Jan 31 4:00 AM, Ponta Delgada, Weather by CustomWeather, © 2014

Note: Actual official high and low records may vary slightly from our data, if they occured in-between our weather recording intervals... More about our weather records

Advertising

Ponta Delgada weather history for previous 24 hours

 ConditionsComfort  
Time TempWeatherWind HumidityBarometerVisibility
4:00 AM
Jan 31
57 °FPassing clouds.8 mph67%30.39 "HgN/A
3:30 AM57 °FPassing clouds.7 mph67%30.39 "HgN/A
3:00 AM57 °FPassing clouds.5 mph67%30.39 "HgN/A
2:00 AM57 °FPassing clouds.6 mph72%30.39 "HgN/A
1:30 AM57 °FPassing clouds.9 mph67%30.39 "HgN/A
1:00 AM57 °FPassing clouds.6 mph67%30.42 "HgN/A
12:30 AM57 °FPassing clouds.7 mph67%30.42 "HgN/A
12:00 AM57 °FPassing clouds.7 mph67%30.42 "HgN/A
11:30 PM
Jan 30
57 °FPassing clouds.6 mph67%30.42 "HgN/A
11:00 PM57 °FPassing clouds.6 mph67%30.42 "HgN/A
10:30 PM57 °FPassing clouds.7 mph67%30.42 "HgN/A
10:00 PM57 °FPassing clouds.6 mph67%30.42 "HgN/A
9:30 PM57 °FPassing clouds.6 mph67%30.42 "HgN/A
9:00 PM57 °FPassing clouds.6 mph67%30.42 "HgN/A
8:00 PM57 °FPassing clouds.7 mph67%30.42 "HgN/A
7:30 PM57 °FPassing clouds.5 mph67%30.42 "HgN/A
7:00 PM57 °FPassing clouds.6 mph67%30.42 "HgN/A
6:30 PM57 °FPassing clouds.8 mph63%30.42 "HgN/A
6:00 PM57 °FPartly sunny.8 mph67%30.42 "HgN/A
5:30 PM57 °FPartly sunny.9 mph67%30.42 "HgN/A
5:00 PM57 °FPartly sunny.8 mph67%30.42 "HgN/A
4:30 PM57 °FPartly sunny.8 mph67%30.42 "HgN/A
4:00 PM57 °FPartly sunny.8 mph67%30.42 "HgN/A
3:30 PM59 °FPartly sunny.8 mph68%30.42 "HgN/A
3:00 PM57 °FPartly sunny.7 mph72%30.42 "HgN/A
2:30 PM59 °FPartly sunny.6 mph63%30.45 "HgN/A
2:00 PM59 °FPartly sunny.8 mph63%30.45 "HgN/A
1:30 PM59 °FPartly sunny.12 mph68%30.45 "HgN/A
1:00 PM59 °FPartly sunny.15 mph68%30.48 "HgN/A
12:30 PM59 °FPartly sunny.13 mph68%30.48 "HgN/A
12:00 PM59 °FPartly sunny.9 mph72%30.51 "HgN/A
11:30 AM59 °FPartly sunny.10 mph72%30.51 "HgN/A
11:00 AM59 °FPartly sunny.12 mph72%30.51 "HgN/A
10:30 AM57 °FPartly sunny.12 mph77%30.51 "HgN/A
10:00 AM59 °FPartly sunny.7 mph72%30.51 "HgN/A
9:30 AM59 °FPartly sunny.6 mph72%30.51 "HgN/A
9:00 AM57 °FPartly sunny.5 mph72%30.51 "HgN/A
8:30 AM57 °FPartly sunny.6 mph77%30.51 "HgN/A
8:00 AM57 °FPartly sunny.7 mph82%30.51 "HgN/A
7:30 AM57 °FPassing clouds.10 mph82%30.48 "HgN/A
7:00 AM57 °FPassing clouds.9 mph82%30.48 "HgN/A
6:30 AM54 °FPassing clouds.8 mph88%30.48 "HgN/A
6:00 AM57 °FPassing clouds.10 mph77%30.48 "HgN/A
5:30 AM54 °FPassing clouds.9 mph82%30.48 "HgN/A
5:00 AM55 °FPassing clouds.8 mph72%30.48 "HgN/A
Weather by CustomWeather, © 2014

See weather overviewHow to use our weather pages